Regional Weather Roundup
Issued by NWS

Home | Current Version | Previous Version | Text Only | Print | Product List | Glossary On
Versions: 1 2 3 4 5 6 7 8 9 10 11 12 13 14 15 16 17 18 19 20 21 22 23 24 25 26 27 28 29 30 31 32 33 34 35 36 37 38 39 40 41 42 43 44 45 46 47 48 49 50
000
ASUS45 KBOU 190710
RWRCO

WEATHER ROUNDUP FOR COLORADO
NATIONAL WEATHER SERVICE DENVER/BOULDER CO
100 AM MDT FRI APR 19 2019

NOTE: "FAIR" INDICATES FEW OR NO CLOUDS BELOW 12000 FEET WITH NO
SIGNIFICANT WEATHER AND/OR OBSTRUCTIONS TO VISIBILITY.

COZ001>005-013-030-031-190800-
...NORTHWEST COLORADO...

CITY           SKY/WX    TMP DP  RH WIND       PRES   REMARKS
CRAIG          FAIR      42  29  59 CALM      30.30R
HAYDEN         FAIR      44  29  55 W6        30.31S
MEEKER         FAIR      37  29  72 NE5       30.31R
RANGELY        FAIR      42  32  66 S9        30.27S
RABBIT EARS PA FAIR      30  28  93 W13G20    30.39S WCI  20
STEAMBOAT SPGS FAIR      40  29  64 E5        30.30R
WALDEN         FAIR      34  25  69 NW3       30.31S
$$

COZ006>008-011-190800-
...WEST CENTRAL VALLEYS...

CITY           SKY/WX    TMP DP  RH WIND       PRES   REMARKS
GRAND JUNCTION FAIR      49  29  46 SE7       30.24R
MONTROSE       FAIR      45  25  45 SE9       30.31R
EAGLE          MOCLDY    43  27  53 SE5       30.33R
RIFLE          FAIR      43  27  53 CALM      30.28R
DELTA          FAIR      48  30  50 CALM      30.28S
NUCLA          FAIR      45  23  42 E14       30.33S
$$

COZ017>023-064>068-190800-
...SOUTHWEST COLORADO...

CITY           SKY/WX    TMP DP  RH WIND       PRES   REMARKS
DURANGO        FAIR      46  18  32 NW5       30.28R
CORTEZ         FAIR      38  26  62 NE8       30.30R
PAGOSA SPRINGS FAIR      38  21  50 CALM      30.34R
TELLURIDE      FAIR      36  23  60 CALM      30.44S
WOLF CREEK PAS FAIR      28  16  59 NW6       30.52R WCI  22
$$

COZ009-010-012-014-032>034-037-058>063-190800-
...CENTRAL COLORADO...

CITY           SKY/WX    TMP DP  RH WIND       PRES   REMARKS
ASPEN          MOCLDY    35  25  66 S7        30.34S WCI  29
BUENA VISTA    FAIR      34  21  60 NW9       30.31S WCI  26
COPPER MTN     CLOUDY    34  25  69 W12G18    30.46S WCI  25
BERTHOUD PASS  CLOUDY    25  14  63 NW45G55   30.37F WCI   5
COTTONWOOD PAS FAIR      39  21  48 W14G23    30.36R
GUNNISON       FAIR      34  25  69 CALM      30.35R
GRANBY         CLOUDY    41  26  55 CALM      30.33S
KREMMLING      FAIR      34  27  75 CALM      30.32S
LEADVILLE      FAIR      31  21  66 NE12      30.38S WCI  22
MONARCH PASS   MOCLDY    30  19  64 W24       30.54F WCI  16
SALIDA         FAIR      42  20  41 CALM      30.37S
SUNLIGHT       FAIR      32  19  59 W7        30.49S WCI  26
WILKERSON PASS FAIR      32  21  64 N6G17     30.42S WCI  26
$$

COZ069>075-190800-
...SAN LUIS VALLEY/SANGRE DE CRISTO MOUNTAINS...

CITY           SKY/WX    TMP DP  RH WIND       PRES   REMARKS
ALAMOSA        FAIR      41  16  36 NW7       30.29S
DEL NORTE      FAIR      43  18  36 W16       30.33R
LA VETA PASS   NOT AVBL
SAGUACHE       FAIR      37  21  52 CALM      30.32R
$$

COZ035-036-038>040-190800-
...NORTHERN COLORADO FRONT RANGE...

CITY           SKY/WX    TMP DP  RH WIND       PRES   REMARKS
DENVER INTL AP FAIR      45  23  42 CALM      30.23F
AURORA         PTCLDY    39  26  58 S6        30.23F
FRONT RANGE AP FAIR      43  30  59 CALM      30.24F
ERIE MUNI ARPT FAIR      42  29  61 CALM      30.28S
BOULDER MUN AP FAIR      48  27  43 CALM      30.22S
CENTENNIAL     FAIR      40  26  57 S6        30.23F
BROOMFIELD     FAIR      48  23  37 CALM      30.24S
FORT COLLINS   FAIR      42  25  50 E8        30.24
LONGMONT       FAIR      44  30  59 N3        30.25R
$$

COZ041-046-047-076>085-087-088-190800-
...PIKES PEAK/PALMER DIVIDE AND SOUTHERN FOOTHILLS...

CITY           SKY/WX    TMP DP  RH WIND       PRES   REMARKS
COLO. SPRINGS  FAIR      40  22  48 SW3       30.27R
A. F. ACADEMY  FAIR      36  23  58 CALM      30.24S
SCHRIEVER AFB  NOT AVBL
CHEYENNE MTN   FAIR      42  24  49 S7        30.23R
ELLICOTT         N/A    N/A N/A N/A NE7       30.24S
FALCON         FAIR      37  19  47 N7        30.27S
FORT CARSON    FAIR      42  24  48 SW6       30.27R
LIMON          FAIR      29  24  82 NW6       30.22F WCI  23
MONUMENT HILL  FAIR      32  23  69 SW5       30.27F WCI  27
CANON CITY     NOT AVBL
WALSENBURG     NOT AVBL
TRINIDAD       FAIR      34  29  82 W7        30.27S WCI  28
$$

COZ042>045-048>051-090-091-190800-
...NORTHEAST COLORADO...

CITY           SKY/WX    TMP DP  RH WIND       PRES   REMARKS
GREELEY ARPT   FAIR      34  26  72 N6        30.24S WCI  29
AKRON          FAIR      35  26  69 S8        30.23R WCI  29
BURLINGTON     FAIR      31  25  78 W6        30.21F WCI  25
WRAY           FAIR      32  28  86 W8        30.22S WCI  25
YUMA           NOT AVBL
STERLING       FAIR      32  28  86 W8        30.22R WCI  25
HOLYOKE        FAIR      34  30  86 W6        30.21S WCI  29
FORT MORGAN    NOT AVBL
$$

COZ086-089-092>099-190800-
...SOUTHEAST COLORADO...

CITY           SKY/WX    TMP DP  RH WIND       PRES   REMARKS
PUEBLO         FAIR      37  23  56 N5        30.24R
LA JUNTA       FAIR      40  24  53 W9        30.23S
LAMAR          FAIR      34  24  67 CALM      30.21R
SPRINGFIELD      N/A     33  25  72 NW8       30.22R WCI  26
$$




USA.gov is the U.S. government's official web portal to all federal, state and local government web resources and services.